[[{"header":{"parameterUnit":"m.s-1","parameterCategory":1,"la1":30.2991,"la2":30.254,"lo1":-89.0895,"lo2":-89.0444,"dy":0.0017,"dx":0.0017,"nx":28,"ny":28,"refTime":"2024-04-15T21:00:00:Z","depth":0,"parameterNumber":2,"parameterNumberName":"U-component_of_WINDS"},"data":[0,0,0,0,0,0,0,0,0,0,0,0,0,0,0,0,0,0,0,0,0,0,0,0,0,0,0,0,0,0,0,0,0,0,0,0,0,0,0,0,0,0,0,0,0,0,0,0,0,0,0,0,0,0,0,0,0,0,-2.5098,-2.5099,0,-2.5195,-2.5196,-2.5197,-2.5223,-2.5223,-2.5222,-2.5222,-2.5325,-2.5328,-2.5331,0,0,0,0,0,0,0,0,0,0,0,0,0,-2.4936,-2.4939,-2.5097,-2.5099,-2.51,-2.5195,-2.5196,-2.5198,-2.5223,-2.5223,-2.5222,-2.5221,-2.5324,-2.5327,-2.5331,0,0,0,0,0,0,0,0,0,0,0,0,0,-2.5017,-2.494,-2.5097,-2.5124,-2.5127,-2.5195,-2.5196,-2.5198,-2.5224,-2.5223,-2.5222,-2.5221,-2.5322,-2.5327,-2.5332,-2.538,0,0,-2.5347,-2.5349,0,0,0,0,0,0,0,0,-2.5013,-2.5023,-2.5119,-2.5122,-2.5126,-2.5196,-2.5177,-2.5259,-2.5224,-2.5187,-2.5222,-2.522,-2.5283,-2.5291,-2.5311,-2.5385,-2.5389,-2.5347,-2.535,-2.5353,-2.5354,0,0,0,0,0,0,0,-2.5007,-2.5019,-2.5136,-2.512,-2.5125,-2.5132,-2.5143,-2.5193,-2.5239,-2.519,-2.5192,-2.5203,-2.5285,-2.5306,-2.5314,-2.5391,-2.5347,-2.5352,-2.5355,-2.5357,-2.5509,-2.551,0,0,0,0,0,0,-2.4996,-2.5014,-2.5133,-2.5139,-2.5066,-2.5136,-2.5148,-2.5175,-2.5238,-2.5247,-2.5204,-2.5204,-2.5298,-2.5308,-2.5318,-2.5377,-2.5353,-2.5357,-2.536,-2.5508,-2.5509,-2.551,0,0,0,0,0,0,-2.4993,-2.5007,-2.5129,-2.5077,-2.5093,-2.5139,-2.517,-2.5177,-2.5199,-2.5249,-2.5257,-2.5218,-2.5298,-2.5311,-2.5364,-2.5381,-2.5359,-2.5364,-2.5506,-2.5508,-2.551,-2.5498,0,0,0,0,0,0,-2.4988,-2.5005,-2.5023,-2.5077,-2.5096,-2.5173,-2.5171,-2.518,-2.5207,-2.5208,-2.5264,-2.5272,-2.5298,-2.5356,-2.5369,-2.5388,-2.5368,-2.5505,-2.5507,-2.5509,-2.5497,-2.5499,-2.5501,0,0,0,0,0,-2.4982,-2.5017,-2.5024,-2.5038,-2.512,-2.5174,-2.5185,-2.5213,-2.5208,-2.5227,-2.5259,-2.527,-2.5378,-2.5362,-2.5376,-2.5397,-2.5504,-2.5507,-2.5509,-2.5496,-2.5499,-2.5501,0,0,0,0,0,0,-2.4965,-2.5025,-2.5033,-2.5087,-2.5125,-2.5178,-2.5203,-2.5215,-2.5256,-2.5256,-2.5291,-2.5303,-2.5354,-2.5381,-2.5362,-2.5446,-2.5441,-2.5446,-2.5427,-2.5429,-2.5431,-2.5423,-2.5372,0,0,0,0,0,-2.4967,-2.5006,-2.5056,-2.5099,-2.5117,-2.5157,-2.5182,-2.52,-2.5242,-2.5258,-2.5294,-2.5335,-2.5378,-2.5405,-2.5448,-2.5501,-2.5514,-2.5523,-2.5524,-2.5526,-2.553,-2.556,-2.5564,-2.5518,-2.5518,-2.5518,0,0,-2.4973,-2.501,-2.5033,-2.5096,-2.5128,-2.5167,-2.517,-2.5212,-2.5242,-2.5265,-2.5317,-2.5345,-2.5393,-2.5446,-2.5472,-2.547,-2.5545,-2.5529,-2.5529,-2.5533,-2.5562,-2.5567,-2.557,-2.552,-2.5519,-2.5519,0,0,-2.5003,-2.5035,-2.5073,-2.5105,-2.5152,-2.5178,-2.5187,-2.5239,-2.5258,-2.5311,-2.5328,-2.5365,-2.5438,-2.5471,-2.5498,-2.5539,-2.5551,-2.5552,-2.5562,-2.559,-2.5594,-2.5597,-2.5611,-2.5616,-2.5556,-2.5556,-2.5556,0,-2.5004,-2.5063,-2.5092,-2.5132,-2.5159,-2.5181,-2.522,-2.525,-2.5309,-2.5328,-2.5326,-2.5417,-2.5451,-2.5512,-2.5522,-2.5543,-2.5555,-2.5546,-2.5591,-2.5594,-2.5598,-2.5612,-2.5617,-2.5556,-2.5556,-2.5556,-2.5556,0,-2.5061,-2.5102,-2.5128,-2.5182,-2.5213,-2.5253,-2.5288,-2.5315,-2.5331,-2.5358,-2.5411,-2.5452,-2.5502,-2.5519,-2.5535,-2.5582,-2.558,-2.5584,-2.5579,-2.5601,-2.5615,-2.5621,-2.5556,-2.5556,-2.5556,-2.5556,0,0,-2.5083,-2.5153,-2.5162,-2.5187,-2.524,-2.5273,-2.5314,-2.5362,-2.5384,-2.5425,-2.546,-2.5521,-2.5525,-2.5555,-2.5575,-2.56,-2.563,-2.5601,-2.5603,-2.5604,-2.5683,-2.5679,-2.5684,-2.5638,-2.5639,-2.564,-2.5678,0,-2.5119,-2.5191,-2.5218,-2.5277,-2.5315,-2.5336,-2.5371,-2.5409,-2.5434,-2.5471,-2.55,-2.5542,-2.5544,-2.5562,-2.5588,-2.562,-2.5646,-2.5618,-2.5671,-2.5673,-2.5657,-2.5691,-2.5688,-2.5722,-2.5684,-2.5685,-2.5686,0,-2.5171,-2.5209,-2.5272,-2.532,-2.5337,-2.5368,-2.5414,-2.5449,-2.5491,-2.5509,-2.5541,-2.556,-2.5604,-2.5597,-2.5658,-2.5639,-2.5662,-2.5682,-2.5684,-2.5689,-2.568,-2.5697,-2.5733,-2.5738,-2.5694,-2.5694,-2.5693,0,-2.5179,-2.5247,-2.5293,-2.5314,-2.5372,-2.5393,-2.5418,-2.546,-2.5487,-2.5528,-2.5545,-2.5591,-2.5616,-2.5652,-2.5682,-2.5675,-2.5741,-2.5736,-2.5756,-2.5755,-2.5768,-2.5767,-2.5808,-2.5785,-2.5785,-2.5785,-2.5785,0,-2.5215,-2.5252,-2.5297,-2.5325,-2.5368,-2.5399,-2.544,-2.5467,-2.5504,-2.5538,-2.556,-2.5592,-2.5631,-2.5668,-2.5693,-2.574,-2.5751,-2.5766,-2.5772,-2.5764,-2.5762,-2.5779,-2.5777,-2.5786,-2.5786,-2.5786,-2.5785,0,-2.5231,-2.5263,-2.5314,-2.5364,-2.5377,-2.5406,-2.545,-2.5478,-2.5505,-2.5548,-2.556,-2.5602,-2.5647,-2.5681,-2.574,-2.5756,-2.5805,-2.5812,-2.579,-2.5793,-2.581,-2.5808,-2.5863,-2.5872,-2.5844,-2.5844,-2.5844,0,-2.5252,-2.5281,-2.5333,-2.5357,-2.5381,-2.542,-2.5447,-2.5479,-2.5506,-2.5556,-2.5579,-2.5625,-2.5663,-2.5734,-2.5771,-2.5816,-2.5823,-2.584,-2.583,-2.5821,-2.5823,-2.582,-2.5823,-2.5841,-2.5841,-2.5841,-2.5841,0,-2.5285,-2.5299,-2.5337,-2.5379,-2.541,-2.5446,-2.5482,-2.5501,-2.5539,-2.5569,-2.5614,-2.5644,-2.5703,-2.5748,-2.5797,-2.5824,-2.5839,-2.5844,-2.585,-2.5842,-2.5827,-2.5834,-2.5792,-2.5842,-2.5842,-2.5842,-2.5842,-2.5842,-2.5304,-2.533,-2.537,-2.5411,-2.5441,-2.5474,-2.5503,-2.5532,-2.557,-2.5619,-2.5636,-2.5683,-2.5725,-2.5791,-2.5819,-2.5856,-2.5857,-2.5867,-2.587,-2.5871,-2.587,-2.5822,-2.5866,-2.5866,-2.5866,-2.5866,-2.5866,0,-2.5338,-2.5364,-2.5401,-2.545,-2.5482,-2.5492,-2.5532,-2.5559,-2.5599,-2.5636,-2.5673,-2.5724,-2.5768,-2.5808,-2.5854,-2.5876,-2.5884,-2.5887,-2.5886,-2.5892,-2.5867,-2.5856,-2.588,-2.588,-2.588,-2.588,-2.588,-2.588,-2.5359,-2.5403,-2.5421,-2.548,-2.5507,-2.5552,-2.5574,-2.5604,-2.5634,-2.569,-2.5726,-2.5751,-2.579,-2.5838,-2.5879,-2.589,-2.5906,-2.5907,-2.5919,-2.5895,-2.5893,-2.5892,-2.5881,-2.591,-2.591,-2.594,-2.594,-2.594]},{"header":{"parameterUnit":"m.s-1","parameterCategory":1,"la1":30.2991,"la2":30.254,"lo1":-89.0895,"lo2":-89.0444,"dy":0.0017,"dx":0.0017,"nx":28,"ny":28,"refTime":"2024-04-15T21:00:00:Z","depth":0,"parameterNumber":3,"parameterNumberName":"V-component_of_WINDS"},"data":[0,0,0,0,0,0,0,0,0,0,0,0,0,0,0,0,0,0,0,0,0,0,0,0,0,0,0,0,0,0,0,0,0,0,0,0,0,0,0,0,0,0,0,0,0,0,0,0,0,0,0,0,0,0,0,0,0,0,4.3657,4.3657,0,4.3591,4.359,4.3589,4.3531,4.353,4.353,4.3529,4.3459,4.3457,4.3456,0,0,0,0,0,0,0,0,0,0,0,0,0,4.3732,4.3731,4.3657,4.3657,4.3656,4.3591,4.359,4.3589,4.3531,4.353,4.353,4.3529,4.3459,4.3458,4.3456,0,0,0,0,0,0,0,0,0,0,0,0,0,4.3686,4.3731,4.3658,4.3619,4.3615,4.3591,4.359,4.3589,4.3531,4.353,4.3529,4.3529,4.346,4.3458,4.3456,4.3464,0,0,4.345,4.3449,0,0,0,0,0,0,0,0,4.3689,4.3684,4.3626,4.3622,4.3617,4.3568,4.3591,4.3547,4.3532,4.3563,4.3529,4.3528,4.3496,4.3491,4.348,4.3461,4.3458,4.345,4.3449,4.3448,4.3447,0,0,0,0,0,0,0,4.3692,4.3686,4.3631,4.3625,4.362,4.3605,4.3597,4.3582,4.3536,4.356,4.3556,4.3549,4.3493,4.3482,4.3478,4.3457,4.345,4.3448,4.3447,4.3446,4.3441,4.3441,0,0,0,0,0,0,4.3702,4.3689,4.3633,4.3629,4.3651,4.3604,4.3595,4.3585,4.3536,4.3527,4.355,4.3546,4.3486,4.3481,4.3476,4.3482,4.3448,4.3446,4.3445,4.344,4.3441,4.3442,0,0,0,0,0,0,4.3704,4.3697,4.3636,4.3658,4.3649,4.3604,4.3592,4.3584,4.3573,4.3528,4.3519,4.3548,4.3485,4.3478,4.3468,4.3479,4.3445,4.3444,4.3438,4.344,4.3441,4.3496,0,0,0,0,0,0,4.3706,4.3698,4.3701,4.3658,4.3648,4.363,4.3593,4.3584,4.357,4.3565,4.3523,4.3515,4.3484,4.3471,4.3466,4.3476,4.3442,4.3437,4.3439,4.3441,4.3493,4.3499,4.3504,0,0,0,0,0,4.3709,4.3719,4.3702,4.3695,4.3651,4.363,4.3624,4.3589,4.3572,4.3574,4.3545,4.3517,4.3479,4.347,4.3464,4.3474,4.3436,4.3439,4.3441,4.349,4.3498,4.3504,0,0,0,0,0,0,4.3763,4.3712,4.3693,4.3689,4.3665,4.3621,4.3623,4.3598,4.3577,4.3573,4.3528,4.3519,4.3514,4.3492,4.3484,4.3479,4.3454,4.3455,4.3493,4.35,4.3506,4.3511,4.3441,0,0,0,0,0,4.3775,4.3763,4.3719,4.372,4.3709,4.3668,4.3658,4.3632,4.3605,4.3594,4.3564,4.3537,4.3519,4.3509,4.3489,4.3489,4.3479,4.3493,4.3499,4.3504,4.3505,4.3504,4.3509,4.3449,4.3449,4.3449,0,0,4.3798,4.3769,4.3764,4.373,4.3708,4.3696,4.366,4.3648,4.3639,4.3592,4.358,4.3557,4.3525,4.352,4.3516,4.3502,4.352,4.3506,4.3511,4.3509,4.3507,4.3512,4.3518,4.3451,4.345,4.345,0,0,4.3836,4.3813,4.3811,4.379,4.3758,4.3731,4.373,4.369,4.3674,4.3661,4.3626,4.3614,4.3584,4.3562,4.3547,4.3578,4.3551,4.3573,4.3603,4.3602,4.3607,4.3611,4.3622,4.3626,4.3574,4.3574,4.3574,0,4.3869,4.3851,4.3813,4.3805,4.3791,4.3748,4.3747,4.3728,4.369,4.3681,4.3666,4.3628,4.3604,4.3593,4.3601,4.359,4.3588,4.3577,4.3609,4.3613,4.3616,4.3626,4.363,4.3577,4.3577,4.3577,4.3576,0,4.3894,4.3882,4.3884,4.385,4.3837,4.3832,4.3793,4.3783,4.3759,4.3734,4.3722,4.3691,4.3665,4.3661,4.3637,4.3647,4.3639,4.3618,4.3591,4.3625,4.3634,4.3637,4.3581,4.358,4.358,4.3579,0,0,4.3963,4.3909,4.3911,4.3895,4.3857,4.3846,4.3839,4.3815,4.3808,4.3783,4.3776,4.3752,4.3732,4.3715,4.3688,4.3688,4.3714,4.3666,4.3664,4.3676,4.3724,4.3741,4.3746,4.3696,4.3697,4.3697,4.3727,0,4.3994,4.398,4.3946,4.3942,4.3931,4.389,4.3884,4.386,4.3836,4.3822,4.3795,4.3779,4.3753,4.3743,4.374,4.3712,4.3723,4.3709,4.3689,4.3689,4.3699,4.375,4.3768,4.3797,4.373,4.373,4.3731,0,4.4029,4.4009,4.4004,4.3966,4.396,4.3955,4.393,4.3918,4.3889,4.3871,4.3854,4.3824,4.3814,4.379,4.3775,4.3767,4.3756,4.3741,4.3741,4.3738,4.3712,4.3749,4.3806,4.381,4.3735,4.3735,4.3735,0,4.4081,4.4052,4.4045,4.4033,4.3989,4.3987,4.3968,4.3938,4.3926,4.3904,4.3896,4.3873,4.386,4.3843,4.3808,4.3793,4.3797,4.377,4.3782,4.3783,4.3785,4.3785,4.3841,4.3778,4.3778,4.3778,4.3778,0,4.412,4.4118,4.4068,4.4064,4.4062,4.4023,4.4021,4.3998,4.3972,4.3963,4.3926,4.3918,4.3872,4.3859,4.3831,4.3824,4.3818,4.3803,4.3796,4.3807,4.3809,4.38,4.3797,4.3779,4.3779,4.3779,4.3778,0,4.4177,4.4144,4.4134,4.4093,4.4083,4.4083,4.4048,4.4042,4.4016,4.4005,4.4,4.3959,4.3941,4.3905,4.3876,4.3858,4.3857,4.3844,4.3867,4.3863,4.3877,4.3876,4.3929,4.3934,4.3868,4.3869,4.3869,0,4.4205,4.4203,4.4162,4.4154,4.4137,4.4124,4.4111,4.4073,4.4061,4.4028,4.4027,4.4006,4.3988,4.3961,4.3928,4.3907,4.3893,4.3913,4.3889,4.3901,4.3894,4.3895,4.3894,4.3918,4.3919,4.392,4.3921,0,4.4257,4.424,4.4224,4.4203,4.4189,4.417,4.4148,4.4143,4.41,4.4088,4.407,4.4056,4.4028,4.4008,4.3982,4.3961,4.3934,4.3928,4.393,4.3941,4.3955,4.3948,4.3882,4.3927,4.3927,4.3926,4.3926,4.3926,4.43,4.4297,4.4268,4.4252,4.4232,4.4213,4.4206,4.4179,4.4164,4.4138,4.4116,4.41,4.4071,4.4033,4.4015,4.4001,4.3988,4.399,4.3991,4.3992,4.3997,4.3957,4.3996,4.3996,4.3996,4.3996,4.3995,0,4.4351,4.4331,4.4316,4.4288,4.4275,4.425,4.4226,4.4216,4.4203,4.4178,4.4161,4.4141,4.4121,4.4087,4.4065,4.4061,4.4047,4.4056,4.4056,4.4052,4.401,4.4011,4.4067,4.4067,4.4067,4.4067,4.4067,4.4067,4.4376,4.437,4.435,4.4333,4.4312,4.4297,4.4285,4.4267,4.4247,4.4226,4.421,4.4188,4.416,4.4135,4.4116,4.4107,4.41,4.4113,4.41,4.4061,4.4055,4.4048,4.4049,4.4112,4.4112,4.4142,4.4143,4.4143]}]]